Tracking 28790 objects as of 19-Apr-2024
HD Live streaming from Space Station
objects crossing your sky now

SCOUT G-1 R/B

Track SCOUT G-1 R/B now!
10-day predictions


NORAD ID: 19421
Int'l Code: 1988-074C
Perigee: 1,038.5 km
Apogee: 1,180.5 km
Inclination: 90.0 °
Period: 107.3 minutes
Semi major axis: 7480 km
RCS: 0.883 m2 (medium)
Launch date: August 25, 1988
Source: United States (US)
Launch site: AIR FORCE WESTERN TEST RANGE (AFWTR)

Note: This is a ROCKET BODY
Your satellite tracking list
Your tracking list is empty




NASA's NSSDC Master Catalog

Two Line Element Set (TLE):
1 19421U 88074C   24109.79186439  .00000142  00000-0  23184-3 0  9995
2 19421  90.0256  19.0019 0094915 192.9385 227.3647 13.41852422744958
Source of the keplerian elements: AFSPC